Location: Ariel
(45.9570°N, 122.5700°W)
Time: 01:22:12
(UTC-07:00)

Vanguard 3 - Pass Details

Date: 30 August 2019
Orbit: 508 x 3263 km, 33.4° (Epoch: 14 September)

Event Time Altitude Azimuth Distance (km) Brightness Sun altitude
Rises 16:35:52 0° 244° (WSW) 6,267 12.8 32.7°
Reaches altitude 10° 16:41:02 10° 238° (WSW) 4,809 12.6 31.9°
Maximum altitude 16:51:45 35° 179° (S) 2,254 9.9 30.1°
Drops below altitude 10° 16:58:18 10° 116° (ESE) 2,910 9.7 29.1°
Sets 17:00:39 0° 107° (ESE) 3,588 10.0 28.7°
